[[{"header":{"parameterUnit":"m.s-1","parameterCategory":1,"la1":30.2991,"la2":30.254,"lo1":-89.0895,"lo2":-89.0444,"dy":0.0017,"dx":0.0017,"nx":28,"ny":28,"refTime":"2023-08-30T03:00:00:Z","depth":0,"parameterNumber":2,"parameterNumberName":"U-component_of_WINDS"},"data":[0,0,0,0,0,0,0,0,0,0,0,0,0,0,0,0,0,0,0,0,0,0,0,0,0,0,0,0,0,0,0,0,0,0,0,0,0,0,0,0,0,0,0,0,0,0,0,0,0,0,0,0,0,0,0,0,0,0,-1.5897,-1.5897,0,-1.584,-1.5839,-1.5839,-1.5745,-1.5744,-1.5742,-1.574,-1.5684,-1.5684,-1.5684,0,0,0,0,0,0,0,0,0,0,0,0,0,-1.5927,-1.5927,-1.5897,-1.5896,-1.5896,-1.584,-1.5839,-1.5839,-1.5746,-1.5743,-1.5741,-1.5739,-1.5684,-1.5684,-1.5684,0,0,0,0,0,0,0,0,0,0,0,0,0,-1.5896,-1.5927,-1.5897,-1.5843,-1.5837,-1.584,-1.5839,-1.5838,-1.5746,-1.5743,-1.5741,-1.5738,-1.5684,-1.5684,-1.5684,-1.5737,0,0,-1.5684,-1.5685,0,0,0,0,0,0,0,0,-1.5898,-1.5895,-1.5851,-1.5846,-1.584,-1.5797,-1.5829,-1.5804,-1.5747,-1.5781,-1.574,-1.5737,-1.5724,-1.572,-1.5715,-1.5734,-1.5732,-1.5685,-1.5685,-1.5685,-1.5685,0,0,0,0,0,0,0,-1.59,-1.5897,-1.5875,-1.5851,-1.5844,-1.5821,-1.5814,-1.5824,-1.5768,-1.5778,-1.5771,-1.5765,-1.572,-1.5716,-1.5713,-1.5731,-1.5685,-1.5685,-1.5685,-1.5685,-1.5788,-1.5791,0,0,0,0,0,0,-1.591,-1.59,-1.5876,-1.5873,-1.5863,-1.5823,-1.5815,-1.5814,-1.5767,-1.5757,-1.5767,-1.5761,-1.5717,-1.5713,-1.5711,-1.5768,-1.5685,-1.5685,-1.5685,-1.5785,-1.5789,-1.5791,0,0,0,0,0,0,-1.5911,-1.5909,-1.5879,-1.5884,-1.5879,-1.5825,-1.5824,-1.5814,-1.5809,-1.5759,-1.5749,-1.5773,-1.5714,-1.5711,-1.573,-1.5765,-1.5685,-1.5685,-1.5782,-1.5786,-1.579,-1.5884,0,0,0,0,0,0,-1.5913,-1.591,-1.5929,-1.5885,-1.5879,-1.5899,-1.5827,-1.5815,-1.5809,-1.58,-1.5762,-1.5753,-1.5712,-1.5731,-1.5731,-1.5764,-1.5685,-1.5779,-1.5784,-1.5789,-1.5877,-1.589,-1.5902,0,0,0,0,0,-1.5914,-1.5959,-1.5931,-1.5928,-1.5902,-1.5901,-1.5897,-1.5849,-1.5813,-1.5831,-1.5799,-1.5754,-1.5762,-1.5734,-1.5733,-1.5766,-1.5777,-1.5783,-1.5788,-1.5872,-1.5888,-1.5901,0,0,0,0,0,0,-1.6009,-1.5952,-1.592,-1.5952,-1.5932,-1.5885,-1.5908,-1.5868,-1.5858,-1.585,-1.5791,-1.5783,-1.581,-1.579,-1.576,-1.5814,-1.5762,-1.5768,-1.5826,-1.584,-1.5852,-1.5856,-1.5685,0,0,0,0,0,-1.6033,-1.6037,-1.5988,-1.6021,-1.6012,-1.5962,-1.596,-1.5924,-1.5901,-1.5893,-1.5862,-1.5842,-1.5839,-1.5839,-1.5834,-1.5874,-1.5864,-1.5897,-1.5909,-1.5919,-1.5925,-1.5943,-1.5957,-1.5811,-1.5811,-1.5811,0,0,-1.6084,-1.6054,-1.606,-1.6039,-1.6019,-1.6024,-1.5955,-1.5964,-1.5968,-1.5894,-1.591,-1.5887,-1.5861,-1.5891,-1.5902,-1.5875,-1.5963,-1.5927,-1.5936,-1.5935,-1.5951,-1.5964,-1.5977,-1.5815,-1.5814,-1.5814,0,0,-1.6179,-1.6157,-1.6181,-1.6162,-1.6133,-1.6099,-1.6105,-1.6065,-1.6046,-1.6061,-1.6005,-1.6009,-1.6007,-1.5989,-1.5981,-1.6069,-1.6026,-1.6069,-1.6132,-1.615,-1.6162,-1.6172,-1.6201,-1.6213,-1.6075,-1.6075,-1.6075,0,-1.6246,-1.6251,-1.6199,-1.621,-1.6202,-1.6136,-1.6159,-1.6144,-1.6116,-1.6111,-1.6081,-1.6075,-1.6053,-1.6077,-1.6099,-1.6094,-1.6099,-1.6072,-1.6164,-1.6174,-1.6182,-1.621,-1.6221,-1.608,-1.608,-1.6079,-1.6079,0,-1.6334,-1.6339,-1.6362,-1.6334,-1.6329,-1.6347,-1.6298,-1.6299,-1.6264,-1.6233,-1.6249,-1.622,-1.6207,-1.6211,-1.6177,-1.623,-1.6213,-1.6175,-1.6121,-1.6202,-1.6227,-1.6237,-1.6088,-1.6086,-1.6084,-1.6083,0,0,-1.6486,-1.6429,-1.6438,-1.6424,-1.6387,-1.639,-1.6405,-1.6391,-1.6393,-1.6376,-1.6386,-1.6385,-1.6349,-1.6339,-1.6303,-1.6319,-1.6389,-1.6278,-1.6276,-1.6298,-1.6443,-1.6471,-1.6484,-1.6361,-1.6363,-1.6364,-1.6444,0,-1.6572,-1.6593,-1.6546,-1.6579,-1.6582,-1.6519,-1.6531,-1.651,-1.6482,-1.6481,-1.645,-1.645,-1.6403,-1.6396,-1.6409,-1.6377,-1.6417,-1.6371,-1.6369,-1.637,-1.6376,-1.6497,-1.6527,-1.6604,-1.6454,-1.6455,-1.6457,0,-1.6675,-1.6661,-1.6694,-1.6653,-1.6653,-1.6665,-1.6649,-1.6649,-1.6623,-1.6601,-1.659,-1.6548,-1.6559,-1.6509,-1.6523,-1.6493,-1.649,-1.6474,-1.6476,-1.6473,-1.6417,-1.6495,-1.6627,-1.6638,-1.6472,-1.6471,-1.647,0,-1.678,-1.677,-1.6788,-1.6778,-1.6732,-1.6742,-1.6724,-1.6695,-1.669,-1.6676,-1.6672,-1.666,-1.6653,-1.6645,-1.66,-1.6568,-1.662,-1.6566,-1.6601,-1.6602,-1.6614,-1.6613,-1.6745,-1.6615,-1.6615,-1.6615,-1.6614,0,-1.6879,-1.6902,-1.6834,-1.6845,-1.6868,-1.6814,-1.6839,-1.6814,-1.6789,-1.6794,-1.6739,-1.6745,-1.6686,-1.6686,-1.6651,-1.6668,-1.6666,-1.6648,-1.6638,-1.6652,-1.6654,-1.6647,-1.664,-1.6618,-1.6617,-1.6616,-1.6616,0,-1.7,-1.6956,-1.6971,-1.6926,-1.6915,-1.6934,-1.6895,-1.6903,-1.6872,-1.6879,-1.6877,-1.6828,-1.6825,-1.678,-1.6767,-1.6743,-1.6773,-1.6754,-1.6781,-1.6774,-1.6811,-1.6808,-1.6942,-1.6956,-1.6819,-1.6821,-1.6822,0,-1.7065,-1.7081,-1.7037,-1.7036,-1.702,-1.7019,-1.7013,-1.6961,-1.6957,-1.6929,-1.694,-1.6932,-1.6922,-1.6919,-1.6882,-1.6872,-1.6851,-1.6899,-1.6849,-1.6862,-1.6849,-1.6848,-1.6849,-1.6909,-1.6911,-1.6912,-1.6913,0,-1.7186,-1.7163,-1.7156,-1.7142,-1.7136,-1.7122,-1.7105,-1.7108,-1.705,-1.7049,-1.7044,-1.7036,-1.7022,-1.7014,-1.6997,-1.6978,-1.6936,-1.693,-1.6937,-1.695,-1.6964,-1.6955,-1.6808,-1.6926,-1.6925,-1.6924,-1.6923,-1.6923,-1.7279,-1.7289,-1.726,-1.7254,-1.7235,-1.7221,-1.7225,-1.7195,-1.7189,-1.7173,-1.7143,-1.7143,-1.7116,-1.7088,-1.7072,-1.7071,-1.7046,-1.7057,-1.7059,-1.7062,-1.7069,-1.6966,-1.7068,-1.7067,-1.7067,-1.7066,-1.7066,0,-1.7395,-1.7372,-1.7368,-1.7345,-1.734,-1.7301,-1.728,-1.7279,-1.7279,-1.7257,-1.7249,-1.7242,-1.7234,-1.7197,-1.7185,-1.7191,-1.7171,-1.7189,-1.7187,-1.7183,-1.7093,-1.7087,-1.7205,-1.7205,-1.7205,-1.7205,-1.7205,-1.7205,-1.7454,-1.7468,-1.7442,-1.7447,-1.7425,-1.7423,-1.7414,-1.74,-1.7382,-1.7378,-1.737,-1.7346,-1.7318,-1.7303,-1.7293,-1.7282,-1.728,-1.7304,-1.7287,-1.7203,-1.7189,-1.7177,-1.7171,-1.7304,-1.7304,-1.7376,-1.7377,-1.7377]},{"header":{"parameterUnit":"m.s-1","parameterCategory":1,"la1":30.2991,"la2":30.254,"lo1":-89.0895,"lo2":-89.0444,"dy":0.0017,"dx":0.0017,"nx":28,"ny":28,"refTime":"2023-08-30T03:00:00:Z","depth":0,"parameterNumber":3,"parameterNumberName":"V-component_of_WINDS"},"data":[0,0,0,0,0,0,0,0,0,0,0,0,0,0,0,0,0,0,0,0,0,0,0,0,0,0,0,0,0,0,0,0,0,0,0,0,0,0,0,0,0,0,0,0,0,0,0,0,0,0,0,0,0,0,0,0,0,0,-1.923,-1.9228,0,-1.9033,-1.9031,-1.9028,-1.893,-1.893,-1.893,-1.893,-1.8717,-1.8711,-1.8706,0,0,0,0,0,0,0,0,0,0,0,0,0,-1.9509,-1.9504,-1.9231,-1.9228,-1.9226,-1.9033,-1.9031,-1.9028,-1.893,-1.893,-1.893,-1.893,-1.8719,-1.8712,-1.8705,0,0,0,0,0,0,0,0,0,0,0,0,0,-1.9357,-1.9503,-1.9231,-1.9154,-1.9145,-1.9034,-1.9031,-1.9027,-1.893,-1.893,-1.893,-1.893,-1.8721,-1.8713,-1.8704,-1.8651,0,0,-1.8678,-1.8675,0,0,0,0,0,0,0,0,-1.9366,-1.9347,-1.9168,-1.9159,-1.9149,-1.9007,-1.905,-1.8901,-1.893,-1.9011,-1.893,-1.893,-1.8813,-1.8797,-1.8759,-1.8641,-1.8632,-1.8678,-1.8672,-1.8669,-1.8666,0,0,0,0,0,0,0,-1.9376,-1.9355,-1.9152,-1.9165,-1.9154,-1.9124,-1.9103,-1.9022,-1.8914,-1.9004,-1.8997,-1.8975,-1.8807,-1.8768,-1.8753,-1.8629,-1.8678,-1.867,-1.8665,-1.8662,-1.8451,-1.845,0,0,0,0,0,0,-1.9401,-1.9364,-1.9158,-1.9146,-1.926,-1.912,-1.9096,-1.9052,-1.8915,-1.8894,-1.8976,-1.8972,-1.8782,-1.8763,-1.8745,-1.867,-1.8669,-1.8661,-1.8656,-1.8451,-1.8451,-1.845,0,0,0,0,0,0,-1.9408,-1.9384,-1.9166,-1.9253,-1.9223,-1.9115,-1.9067,-1.9048,-1.9008,-1.8893,-1.8872,-1.8956,-1.8781,-1.8757,-1.8675,-1.8662,-1.8657,-1.8649,-1.8452,-1.8451,-1.845,-1.8523,0,0,0,0,0,0,-1.9416,-1.9387,-1.9369,-1.9254,-1.9219,-1.9104,-1.9066,-1.9044,-1.8995,-1.8988,-1.8869,-1.8849,-1.878,-1.8688,-1.8666,-1.865,-1.8643,-1.8452,-1.8452,-1.8451,-1.8521,-1.8525,-1.8528,0,0,0,0,0,-1.9426,-1.9397,-1.9369,-1.9345,-1.9196,-1.9103,-1.9083,-1.9007,-1.8995,-1.8973,-1.8898,-1.8853,-1.8667,-1.8681,-1.8655,-1.8636,-1.8453,-1.8452,-1.8451,-1.852,-1.8524,-1.8528,0,0,0,0,0,0,-1.9511,-1.938,-1.9348,-1.9281,-1.9204,-1.9087,-1.9059,-1.9015,-1.8938,-1.8934,-1.8839,-1.8813,-1.8737,-1.8678,-1.8696,-1.8574,-1.8555,-1.8549,-1.8616,-1.8619,-1.8623,-1.8638,-1.8635,0,0,0,0,0,-1.9522,-1.9463,-1.935,-1.9301,-1.9264,-1.9168,-1.9125,-1.9073,-1.8988,-1.8954,-1.8873,-1.879,-1.8711,-1.8662,-1.8584,-1.8512,-1.8481,-1.8486,-1.8489,-1.8493,-1.8488,-1.8439,-1.8439,-1.8447,-1.8447,-1.8447,0,0,-1.9544,-1.9465,-1.9433,-1.9316,-1.925,-1.9185,-1.9142,-1.9076,-1.9025,-1.8943,-1.8861,-1.8798,-1.8697,-1.8618,-1.8579,-1.8566,-1.8478,-1.8491,-1.8495,-1.8488,-1.8438,-1.8438,-1.8437,-1.8446,-1.8446,-1.8446,0,0,-1.9551,-1.9487,-1.9438,-1.9373,-1.9275,-1.921,-1.9198,-1.9086,-1.9042,-1.8959,-1.8894,-1.883,-1.8699,-1.8629,-1.8576,-1.8551,-1.8503,-1.8527,-1.8544,-1.8499,-1.8498,-1.8497,-1.8484,-1.8481,-1.8523,-1.8523,-1.8523,0,-1.959,-1.9494,-1.9417,-1.9354,-1.9302,-1.9227,-1.9172,-1.9111,-1.8992,-1.8955,-1.8943,-1.8774,-1.8702,-1.8603,-1.8597,-1.8558,-1.8536,-1.8541,-1.8505,-1.8503,-1.8501,-1.8487,-1.8483,-1.8527,-1.8526,-1.8526,-1.8526,0,-1.9544,-1.9478,-1.9449,-1.9338,-1.9282,-1.9224,-1.9133,-1.9085,-1.9036,-1.8971,-1.8883,-1.8792,-1.8693,-1.8666,-1.8617,-1.8558,-1.8552,-1.8524,-1.8503,-1.8505,-1.849,-1.8485,-1.8532,-1.853,-1.8529,-1.8528,0,0,-1.9601,-1.9446,-1.9436,-1.9382,-1.9267,-1.9211,-1.9147,-1.9052,-1.9011,-1.8929,-1.8869,-1.8758,-1.873,-1.867,-1.8612,-1.8572,-1.8552,-1.8547,-1.8543,-1.8548,-1.8475,-1.8496,-1.8492,-1.852,-1.8519,-1.8518,-1.8483,0,-1.9589,-1.9475,-1.9401,-1.9314,-1.9249,-1.9174,-1.9116,-1.9036,-1.8972,-1.8903,-1.8831,-1.8753,-1.8724,-1.8686,-1.8643,-1.8564,-1.8536,-1.8565,-1.8458,-1.8456,-1.8485,-1.8485,-1.8508,-1.8479,-1.8477,-1.8476,-1.8475,0,-1.9562,-1.9484,-1.9392,-1.9279,-1.9248,-1.9199,-1.9103,-1.9041,-1.8945,-1.8901,-1.8832,-1.8773,-1.8695,-1.8681,-1.8569,-1.8591,-1.8542,-1.8496,-1.8493,-1.8478,-1.8465,-1.8468,-1.8469,-1.8464,-1.8466,-1.8467,-1.8468,0,-1.9608,-1.948,-1.9407,-1.9364,-1.9231,-1.9197,-1.914,-1.9045,-1.8991,-1.8906,-1.8868,-1.8775,-1.8722,-1.8648,-1.8563,-1.8561,-1.8458,-1.8438,-1.8415,-1.8417,-1.8396,-1.8398,-1.8386,-1.8368,-1.8369,-1.8369,-1.8369,0,-1.9602,-1.9548,-1.9426,-1.9381,-1.9315,-1.9228,-1.9163,-1.9098,-1.9014,-1.895,-1.8878,-1.8819,-1.8711,-1.8637,-1.8569,-1.8484,-1.8461,-1.842,-1.8402,-1.8425,-1.843,-1.8391,-1.8389,-1.8367,-1.8368,-1.8368,-1.8368,0,-1.9644,-1.9561,-1.9476,-1.9357,-1.9325,-1.9281,-1.9177,-1.9126,-1.9058,-1.8978,-1.8954,-1.8845,-1.8753,-1.8661,-1.8537,-1.8491,-1.8406,-1.8384,-1.844,-1.843,-1.8411,-1.8413,-1.8372,-1.836,-1.8353,-1.8353,-1.8354,0,-1.9645,-1.9602,-1.9478,-1.9432,-1.9376,-1.9303,-1.9248,-1.9158,-1.9102,-1.8987,-1.895,-1.8854,-1.8772,-1.8628,-1.8534,-1.8437,-1.841,-1.8402,-1.8394,-1.8418,-1.8405,-1.8408,-1.8401,-1.8405,-1.8405,-1.8406,-1.8406,0,-1.9655,-1.9615,-1.9541,-1.945,-1.9386,-1.931,-1.923,-1.9195,-1.9088,-1.9028,-1.8935,-1.8872,-1.8745,-1.8648,-1.8539,-1.8474,-1.842,-1.8409,-1.8398,-1.842,-1.8454,-1.8432,-1.8446,-1.841,-1.841,-1.8409,-1.8409,-1.8409,-1.9674,-1.963,-1.9535,-1.9452,-1.9383,-1.9309,-1.9255,-1.918,-1.9102,-1.8994,-1.8944,-1.8849,-1.8748,-1.8597,-1.8532,-1.8453,-1.8438,-1.8423,-1.8419,-1.8416,-1.842,-1.8468,-1.8433,-1.8432,-1.8432,-1.8432,-1.8432,0,-1.9677,-1.9612,-1.9537,-1.9428,-1.9361,-1.932,-1.9228,-1.9173,-1.9092,-1.9005,-1.8926,-1.8815,-1.872,-1.8618,-1.8515,-1.847,-1.8443,-1.8446,-1.8447,-1.8432,-1.844,-1.8459,-1.847,-1.847,-1.847,-1.847,-1.847,-1.847,-1.9671,-1.9593,-1.9541,-1.9425,-1.9358,-1.9267,-1.9218,-1.9147,-1.9076,-1.8958,-1.8879,-1.8814,-1.8718,-1.8607,-1.8515,-1.8487,-1.8451,-1.8461,-1.8425,-1.8435,-1.8432,-1.8429,-1.8446,-1.8454,-1.8454,-1.8422,-1.8422,-1.8422]}]]